星链-30711 (STARLINK-30711 )

导读

STARLINK-30711是美国太空探索技术公司(SpaceX)旗下星链(Starlink)星座的卫星,属于第二代星链V2.0 Mini版本,于2023年9月25日发射。作为星链全球卫星互联网组网的组成部分,该卫星配备氩气霍尔推进器,兼容多频段通信,支持更高通信容量,旨在为全球提供宽带互联网接入服务,目前在轨正常运行,服务覆盖全球范围。

Basic Information
目录编号:
57940
目录名称:
STARLINK-30711
国际标识:
2023-148F
轨道中心:
EARTH
卫星名称:
星链-30711
卫星全名:
星链-30711 (STARLINK-30711 )
卫星状态:
在轨 (已飞行1082 天)
发射日期:
2023-09-25 UTC
国别 :
美国 (US)
星等 :
--
This satellite is enrolled in the Space Conjunction Data Service (SCDS) and the current flight risk assessment level is: High Risk
Orbit Information
数据来源 国际轨道数据 AOE轨道数据
星历时间 2026-09-11T07:46:08+0800
16小时前
查看轨道信息
2026-09-06T06:00:00+0800
5天前
查看轨道信息
半长轴 6840.889km 6840.867km
偏心率 0.0001298 0.0001048
轨道倾角 53.158° 53.160°
近地点辐角 84.361° 88.616°
升交点赤经 242.023° 265.745°
平近点角 275.755° 309.666°
近地点 461.864km 462.013km
远地点 463.64km 463.447km
周期 93.849分钟 93.848分钟
每日圈数 15.343839 15.343912
Detailed Information
固有亮度:
5
最大亮度:
0.3
卫星平台:
Starlink v2.0 mini
覆盖范围:
全球
运营商:
太空探索技术公司
运营商所在国:
美国
制造商(研发单位):
太空探索技术公司
制造商所在国:
美国
使用方式:
暂无
Satellite Introduction
星链(Starlink)计划是由太空探索技术公司(SpaceX)提出的一个巨型低轨卫星互联网星座项目,计划在2019年至2024年间在太空搭建由约1.2万颗卫星组成的“星链”网络,其中1584颗将部署在地球上空550千米处的近地轨道,并从2020年开始工作。该卫星仍在工作。
2D Orbit Map
3D Orbit Map
Orbit Altitude Analysis Chart
Orbit Inclination Analysis Chart
Orbit Comprehensive Analysis Chart
View Comprehensive Chart
Conjunction Data List
Event ID Objects TCA Miss Dist (km) Collision Risk Probability Collision Risk Index (CRI) Action
CDM_260913-074605-794006-609221
2026-09-13T
07:46:02+0000
0.330 km
远距离
3.273069E-4 高风险 0.85
CDM_260913-175505-794006-609221
2026-09-13T
17:55:41+0000
1.247 km
极远距离
7.957278E-6 低风险 0.53
CDM_260913-112805-794006-828521
2026-09-13T
11:28:16+0000
1.815 km
极远距离
2.23063E-6 低风险 0.42
CDM_260913-192905-794006-609221
2026-09-13T
19:29:29+0000
1.897 km
极远距离
2.169128E-6 低风险 0.42
CDM_260913-165605-794006-828521
2026-09-13T
16:56:31+0000
2.442 km
极远距离
1.143167E-6 低风险 0.36
CDM_260913-061205-794006-609221
2026-09-13T
06:12:15+0000
2.596 km
极远距离
1.121896E-6 低风险 0.36
CDM_260913-091905-794006-609221
2026-09-13T
09:19:50+0000
2.790 km
极远距离
1.010428E-6 低风险 0.35
Miss Distance Evolution Trend with All Objects
Collision Probability Evolution Trend with All Objects